EVA234 RPLC-RCTP

Flight info

Callsign EVA234
Flight time 1h 36m
Altitude 40000
Route RIANO4R RIANO TR25 CAB B462 LAO M646 POTIB Q14 TNN TNN1A
Aircraft A333/H-SDE3GHIJ2J3J5M1RVWXY/LB2D1

Departure

Time 2026-05-04 16:13
Airport Clark International Airport / Clark Air Base (RPLC)

Arrival

Time 2026-05-04 17:49
Airport Taiwan Taoyuan International Airport (RCTP)
Time Latitude Longitude Altitude Speed Heading
2026-05-04 16:12 15.28384 120.70331 7717 ft 267 kts 59°
2026-05-04 16:13 15.30338 120.73669 9574 ft 275 kts 60°
2026-05-04 16:13 15.32396 120.77188 10730 ft 306 kts 60°
2026-05-04 16:14 15.34707 120.81136 11805 ft 331 kts 59°
2026-05-04 16:14 15.37241 120.85248 13196 ft 345 kts 58°
2026-05-04 16:15 15.41304 120.91592 15195 ft 358 kts 57°
2026-05-04 16:16 15.44125 120.95909 16507 ft 366 kts 53°
2026-05-04 16:16 15.50289 121.00672 18369 ft 381 kts 19°
2026-05-04 16:17 15.55593 121.01188 19411 ft 390 kts 355°
2026-05-04 16:18 15.63727 120.99800 20986 ft 400 kts 348°
2026-05-04 16:18 15.66469 120.99237 21454 ft 404 kts 348°
2026-05-04 16:19 15.74859 120.97610 23075 ft 413 kts 349°
2026-05-04 16:19 15.80560 120.96566 23991 ft 419 kts 349°
2026-05-04 16:20 15.89268 120.94987 25265 ft 427 kts 349°
2026-05-04 16:20 15.95162 120.93915 26086 ft 433 kts 349°
2026-05-04 16:21 16.04129 120.92279 27321 ft 439 kts 348°
2026-05-04 16:22 16.10180 120.91173 28155 ft 444 kts 348°
2026-05-04 16:22 16.19354 120.89499 29194 ft 451 kts 348°
2026-05-04 16:23 16.28700 120.87784 30227 ft 458 kts 348°
2026-05-04 16:24 16.41346 120.85474 31545 ft 463 kts 348°
2026-05-04 16:25 16.47707 120.84309 32305 ft 463 kts 348°
2026-05-04 16:26 16.60248 120.82011 34187 ft 454 kts 347°
2026-05-04 16:26 16.69559 120.80300 35105 ft 452 kts 347°
2026-05-04 16:27 16.75753 120.79161 35747 ft 451 kts 347°
2026-05-04 16:28 16.85008 120.77456 36684 ft 449 kts 346°
2026-05-04 16:28 16.94240 120.75758 37536 ft 449 kts 346°
2026-05-04 16:29 17.06514 120.73496 38675 ft 447 kts 346°
2026-05-04 16:30 17.15679 120.71806 39353 ft 445 kts 346°
2026-05-04 16:31 17.21751 120.70685 39742 ft 445 kts 346°
2026-05-04 16:31 17.30969 120.68981 39970 ft 454 kts 346°
2026-05-04 16:32 17.40443 120.67233 39961 ft 468 kts 346°
2026-05-04 16:33 17.53522 120.64824 39954 ft 486 kts 346°
2026-05-04 16:34 17.63541 120.62979 39938 ft 487 kts 346°
2026-05-04 16:35 17.83554 120.59285 39918 ft 487 kts 346°
2026-05-04 16:36 17.93520 120.57445 39912 ft 487 kts 346°
2026-05-04 16:37 18.03521 120.55595 39911 ft 487 kts 346°
2026-05-04 16:38 18.16887 120.53241 39913 ft 490 kts 352°
2026-05-04 16:39 18.34035 120.54155 39916 ft 495 kts
2026-05-04 16:40 18.47767 120.55304 39920 ft 494 kts
2026-05-04 16:41 18.64894 120.56678 39926 ft 494 kts
2026-05-04 16:43 18.82056 120.58056 39941 ft 495 kts 360°
2026-05-04 16:43 18.92339 120.58885 39957 ft 494 kts 360°
2026-05-04 16:45 19.12831 120.60539 39958 ft 492 kts 360°
2026-05-04 16:46 19.29899 120.61919 39963 ft 492 kts 360°
2026-05-04 16:47 19.43557 120.63027 39965 ft 492 kts 360°
2026-05-04 16:48 19.57213 120.64134 39971 ft 492 kts 360°
2026-05-04 16:49 19.70828 120.65240 39976 ft 492 kts 359°
2026-05-04 16:50 19.84489 120.66353 39979 ft 492 kts 359°
2026-05-04 16:51 19.94739 120.67189 39979 ft 493 kts 359°
2026-05-04 16:52 20.08416 120.68306 39979 ft 493 kts 359°
2026-05-04 16:53 20.18676 120.69145 39987 ft 493 kts 359°
2026-05-04 16:54 20.32371 120.70267 39988 ft 493 kts 359°
2026-05-04 16:55 20.51749 120.71858 39992 ft 493 kts 359°
2026-05-04 16:56 20.68857 120.73266 39993 ft 493 kts 359°
2026-05-04 16:57 20.79076 120.74109 39999 ft 494 kts 359°
2026-05-04 16:58 20.92774 120.75240 40004 ft 494 kts 359°
2026-05-04 17:00 21.12712 120.72679 40009 ft 480 kts 340°
2026-05-04 17:01 21.28935 120.68460 40015 ft 480 kts 341°
2026-05-04 17:02 21.41939 120.65133 40018 ft 481 kts 340°
2026-05-04 17:03 21.51696 120.62635 40018 ft 481 kts 340°
2026-05-04 17:03 21.61456 120.60129 40025 ft 481 kts 340°
2026-05-04 17:04 21.74425 120.56788 40020 ft 481 kts 340°
2026-05-04 17:05 21.87447 120.53432 40016 ft 481 kts 340°
2026-05-04 17:06 21.97208 120.50914 40018 ft 481 kts 340°
2026-05-04 17:07 22.05915 120.48666 40018 ft 481 kts 340°
2026-05-04 17:07 22.13480 120.46710 40017 ft 481 kts 340°
2026-05-04 17:08 22.23246 120.44182 40008 ft 481 kts 340°
2026-05-04 17:09 22.29756 120.42495 40001 ft 481 kts 340°
2026-05-04 17:09 22.36263 120.40807 40001 ft 481 kts 340°
2026-05-04 17:10 22.52540 120.36577 39986 ft 481 kts 340°
2026-05-04 17:11 22.59053 120.34881 39993 ft 482 kts 340°
2026-05-04 17:12 22.68821 120.32336 39988 ft 482 kts 340°
2026-05-04 17:13 22.85110 120.28081 40015 ft 481 kts 340°
2026-05-04 17:14 22.98121 120.24672 40023 ft 481 kts 340°
2026-05-04 17:15 23.07877 120.22113 40025 ft 481 kts 340°
2026-05-04 17:15 23.14519 120.20938 40025 ft 492 kts 353°
2026-05-04 17:16 23.21359 120.21512 40025 ft 496 kts
2026-05-04 17:16 23.31393 120.22745 39227 ft 477 kts 359°
2026-05-04 17:17 23.34692 120.23140 38677 ft 477 kts 359°
2026-05-04 17:17 23.44547 120.24320 37095 ft 471 kts 358°
2026-05-04 17:18 23.47800 120.24710 36597 ft 469 kts 358°
2026-05-04 17:18 23.54260 120.25482 35571 ft 465 kts 358°
2026-05-04 17:19 23.60721 120.26251 34228 ft 470 kts 358°
2026-05-04 17:19 23.67284 120.27033 32594 ft 478 kts 358°
2026-05-04 17:20 23.73916 120.28559 30886 ft 499 kts 10°
2026-05-04 17:20 23.80561 120.30871 29410 ft 500 kts 12°
2026-05-04 17:20 23.83863 120.32030 28753 ft 496 kts 12°
2026-05-04 17:21 23.90397 120.34308 27436 ft 490 kts 11°
2026-05-04 17:21 23.96854 120.36552 26235 ft 480 kts 11°
2026-05-04 17:22 24.00028 120.37654 25632 ft 476 kts 11°
2026-05-04 17:22 24.03145 120.38739 24892 ft 464 kts 12°
2026-05-04 17:23 24.12139 120.41862 22799 ft 447 kts 12°
2026-05-04 17:23 24.15095 120.42889 22199 ft 443 kts 12°
2026-05-04 17:23 24.20877 120.44918 20949 ft 438 kts 14°
2026-05-04 17:24 24.23678 120.46343 20066 ft 438 kts 26°
2026-05-04 17:24 24.30908 120.52198 17139 ft 425 kts 34°
2026-05-04 17:25 24.33212 120.54188 16118 ft 419 kts 35°
2026-05-04 17:25 24.37701 120.58081 14558 ft 400 kts 35°
2026-05-04 17:26 24.41959 120.61780 13400 ft 387 kts 35°
2026-05-04 17:26 24.48186 120.67194 11766 ft 374 kts 36°
2026-05-04 17:27 24.52225 120.70710 10700 ft 367 kts 36°
2026-05-04 17:27 24.56119 120.74100 10253 ft 341 kts 36°
2026-05-04 17:28 24.59704 120.77242 9702 ft 326 kts 36°
2026-05-04 17:29 24.64832 120.81710 8404 ft 304 kts 36°
2026-05-04 17:29 24.69787 120.86036 7217 ft 304 kts 37°
2026-05-04 17:30 24.74722 120.90352 5973 ft 302 kts 37°
2026-05-04 17:31 24.77959 120.93189 5309 ft 292 kts 38°
2026-05-04 17:31 24.82623 120.97277 3982 ft 273 kts 38°
2026-05-04 17:32 24.85333 120.99657 3826 ft 226 kts 38°
2026-05-04 17:33 24.88688 121.02603 3515 ft 189 kts 38°
2026-05-04 17:33 24.89693 121.03486 3458 ft 183 kts 37°
2026-05-04 17:34 24.92564 121.06008 2854 ft 164 kts 37°
2026-05-04 17:34 24.93445 121.06786 2544 ft 160 kts 36°
2026-05-04 17:35 24.95781 121.09280 2484 ft 153 kts 47°
2026-05-04 17:35 24.97179 121.11065 2492 ft 154 kts 47°
2026-05-04 17:35 24.97882 121.11964 2485 ft 156 kts 47°
2026-05-04 17:36 24.98592 121.12866 2341 ft 155 kts 47°
2026-05-04 17:36 24.99294 121.13755 2128 ft 152 kts 49°
2026-05-04 17:36 24.99978 121.14621 1927 ft 148 kts 49°
2026-05-04 17:36 25.00649 121.15471 1726 ft 146 kts 50°
2026-05-04 17:37 25.01312 121.16310 1540 ft 144 kts 50°
2026-05-04 17:37 25.01963 121.17135 1347 ft 142 kts 50°
2026-05-04 17:37 25.02597 121.17938 1159 ft 140 kts 50°
2026-05-04 17:37 25.03232 121.18742 991 ft 139 kts 50°
2026-05-04 17:38 25.03867 121.19530 792 ft 136 kts 52°
2026-05-04 17:38 25.04484 121.20316 627 ft 134 kts 51°
2026-05-04 17:38 25.05094 121.21097 422 ft 133 kts 52°
2026-05-04 17:38 25.05698 121.21851 275 ft 130 kts 53°
2026-05-04 17:39 25.06868 121.23352 464 ft 147 kts 53°
2026-05-04 17:39 25.07599 121.24296 1254 ft 168 kts 54°
2026-05-04 17:39 25.08381 121.25271 2228 ft 171 kts 56°
2026-05-04 17:40 25.09196 121.26286 2755 ft 187 kts 53°
2026-05-04 17:40 25.09818 121.27592 3208 ft 201 kts 82°
2026-05-04 17:40 25.09619 121.29124 3778 ft 208 kts 118°
2026-05-04 17:40 25.08692 121.30347 4444 ft 209 kts 143°
2026-05-04 17:41 25.07394 121.30957 4873 ft 203 kts 179°
2026-05-04 17:41 25.06063 121.30656 4994 ft 193 kts 212°
2026-05-04 17:41 25.05066 121.29688 4695 ft 191 kts 231°
2026-05-04 17:41 25.04251 121.28537 4362 ft 190 kts 234°
2026-05-04 17:42 25.03475 121.27347 4072 ft 194 kts 234°
2026-05-04 17:42 25.02642 121.26163 3999 ft 196 kts 227°
2026-05-04 17:42 25.01691 121.25081 4002 ft 198 kts 225°
2026-05-04 17:42 25.01053 121.24377 3998 ft 193 kts 225°
2026-05-04 17:43 24.99819 121.23031 4001 ft 182 kts 225°
2026-05-04 17:43 24.99223 121.22385 4000 ft 180 kts 224°
2026-05-04 17:43 24.98037 121.21121 4000 ft 179 kts 224°
2026-05-04 17:43 24.97429 121.20482 3999 ft 179 kts 224°
2026-05-04 17:44 24.96230 121.19222 3997 ft 180 kts 224°
2026-05-04 17:44 24.95618 121.18582 3996 ft 180 kts 224°
2026-05-04 17:44 24.94707 121.17628 3996 ft 180 kts 224°
2026-05-04 17:44 24.93537 121.16338 3991 ft 180 kts 233°
2026-05-04 17:45 24.93208 121.15485 3990 ft 181 kts 258°
2026-05-04 17:45 24.93620 121.13722 3986 ft 189 kts 304°
2026-05-04 17:45 24.94296 121.13089 3880 ft 191 kts 325°
2026-05-04 17:45 24.95504 121.12456 3580 ft 193 kts 334°
2026-05-04 17:46 24.96786 121.12004 3296 ft 197 kts 355°
2026-05-04 17:46 24.98056 121.12403 3153 ft 188 kts 27°
2026-05-04 17:46 24.98999 121.13268 3035 ft 168 kts 49°
2026-05-04 17:46 24.99721 121.14253 2638 ft 167 kts 51°
2026-05-04 17:47 25.00480 121.15267 2056 ft 174 kts 49°
2026-05-04 17:47 25.01272 121.16265 1614 ft 169 kts 50°
2026-05-04 17:47 25.02013 121.17202 1345 ft 155 kts 50°
2026-05-04 17:47 25.02693 121.18061 1139 ft 143 kts 50°
2026-05-04 17:48 25.03343 121.18874 952 ft 141 kts 50°
2026-05-04 17:48 25.03992 121.19671 825 ft 138 kts 52°
2026-05-04 17:48 25.04608 121.20472 637 ft 135 kts 53°
2026-05-04 17:48 25.05215 121.21251 416 ft 134 kts 51°
2026-05-04 17:49 25.05827 121.22031 244 ft 134 kts 53°
2026-05-04 17:49 25.06433 121.22796 105 ft 127 kts 54°
2026-05-04 17:49 25.06947 121.23460 102 ft 101 kts 50°
2026-05-04 17:49 25.07288 121.23889 99 ft 46 kts 47°
2026-05-04 17:50 25.07457 121.24086 98 ft 29 kts 45°
2026-05-04 17:50 25.07603 121.24189 100 ft 21 kts 22°
2026-05-04 17:50 25.07674 121.24219 102 ft 8 kts 20°
2026-05-04 17:50 25.07744 121.24206 106 ft 17 kts 308°
2026-05-04 17:51 25.07707 121.24091 105 ft 16 kts 227°
2026-05-04 17:51 25.07615 121.23976 105 ft 24 kts 229°
2026-05-04 17:51 25.07507 121.23840 104 ft 22 kts 229°
2026-05-04 17:51 25.07410 121.23716 103 ft 20 kts 229°
2026-05-04 17:52 25.07323 121.23606 103 ft 18 kts 229°
2026-05-04 17:52 25.07245 121.23508 106 ft 16 kts 229°
2026-05-04 17:52 25.07179 121.23420 105 ft 14 kts 232°
2026-05-04 17:52 25.07121 121.23344 104 ft 11 kts 234°
2026-05-04 17:53 25.07120 121.23272 106 ft 11 kts 295°
2026-05-04 17:53 25.07196 121.23197 105 ft 16 kts 338°
2026-05-04 17:53 25.07276 121.23214 106 ft 8 kts 13°
2026-05-04 17:53 25.07324 121.23202 105 ft 6 kts 330°
2026-05-04 17:54 25.07350 121.23177 107 ft 4 kts 319°
2026-05-04 17:54 25.07367 121.23161 107 ft 3 kts 320°
2026-05-04 17:54 25.07377 121.23151 107 ft 1 kts 319°
2026-05-04 17:54 25.07379 121.23149 107 ft 0 kts 319°